| time (UTC) | temp F | wind direction | speed MPH | gust MPH | rain 1hr in | rain 24hr in | rain mn in | humidity % | barometer mb |
| 20260505081639 | 60 | 200 | 4.0 | 6.0 | 0.00 | 0.00 | 0.00 | 70 | 1011.7 |
| 20260505080339 | 60 | 199 | 3.0 | 6.0 | 0.00 | 0.00 | 0.00 | 71 | 1011.6 |
| 20260505075039 | 60 | 186 | 3.0 | 5.0 | 0.00 | 0.00 | 0.00 | 71 | 1011.7 |
| 20260505073812 | 60 | 185 | 3.0 | 4.0 | 0.00 | 0.00 | 0.00 | 71 | 1011.7 |
| 20260505073739 | 60 | 185 | 3.0 | 4.0 | 0.00 | 0.00 | 0.00 | 71 | 1011.7 |
| 20260505072439 | 60 | 180 | 3.0 | 5.0 | 0.00 | 0.00 | 0.00 | 70 | 1011.6 |
| 20260505071139 | 60 | 190 | 3.0 | 4.0 | 0.00 | 0.00 | 0.00 | 69 | 1011.6 |
| 20260505065839 | 60 | 175 | 3.0 | 5.0 | 0.00 | 0.00 | 0.00 | 69 | 1011.7 |
| 20260505064539 | 61 | 165 | 3.0 | 5.0 | 0.00 | 0.00 | 0.00 | 68 | 1011.7 |
| 20260505063239 | 61 | 194 | 3.0 | 6.0 | 0.00 | 0.00 | 0.00 | 68 | 1011.8 |
| 20260505061939 | 61 | 194 | 4.0 | 6.0 | 0.00 | 0.00 | 0.00 | 68 | 1011.9 |
| 20260505060639 | 61 | 195 | 4.0 | 6.0 | 0.00 | 0.00 | 0.00 | 67 | 1011.7 |
| 20260505055339 | 61 | 198 | 4.0 | 8.0 | 0.00 | 0.00 | 0.00 | 66 | 1012.0 |
| 20260505054039 | 60 | 194 | 4.0 | 7.0 | 0.00 | 0.00 | 0.00 | 66 | 1011.7 |
| 20260505052739 | 61 | 188 | 4.0 | 6.0 | 0.00 | 0.00 | 0.00 | 65 | 1011.8 |
| 20260505051439 | 61 | 198 | 5.0 | 6.0 | 0.00 | 0.00 | 0.00 | 64 | 1011.8 |
| 20260505050139 | 61 | 185 | 4.0 | 8.0 | 0.00 | 0.00 | 0.00 | 64 | 1011.9 |
| 20260505040939 | 61 | 190 | 4.0 | 5.0 | 0.00 | 0.00 | 0.00 | 61 | 1011.8 |
| 20260505035639 | 61 | 190 | 4.0 | 6.0 | 0.00 | 0.00 | 0.00 | 60 | 1011.8 |
| 20260505034339 | 62 | 196 | 3.0 | 5.0 | 0.00 | 0.00 | 0.00 | 59 | 1011.7 |
| 20260505033039 | 62 | 190 | 3.0 | 4.0 | 0.00 | 0.00 | 0.00 | 58 | 1011.6 |
| 20260505031739 | 62 | 196 | 3.0 | 5.0 | 0.00 | 0.00 | 0.00 | 58 | 1011.8 |
| 20260505030439 | 62 | 191 | 3.0 | 6.0 | 0.00 | 0.00 | 0.00 | 58 | 1011.9 |
| 20260505025139 | 62 | 192 | 3.0 | 4.0 | 0.00 | 0.00 | 0.00 | 58 | 1012.0 |
| 20260505023839 | 62 | 192 | 3.0 | 5.0 | 0.00 | 0.00 | 0.00 | 57 | 1012.0 |
| 20260505022539 | 62 | 191 | 2.0 | 5.0 | 0.00 | 0.00 | 0.00 | 57 | 1012.0 |
| 20260505021239 | 62 | 191 | 2.0 | 4.0 | 0.00 | 0.00 | 0.00 | 56 | 1012.0 |
| 20260505020011 | 63 | 190 | 2.0 | 4.0 | 0.00 | 0.00 | 0.00 | 56 | 1012.3 |
| 20260505015939 | 63 | 190 | 2.0 | 4.0 | 0.00 | 0.00 | 0.00 | 56 | 1012.3 |
| 20260505014639 | 63 | 190 | 2.0 | 4.0 | 0.00 | 0.00 | 0.00 | 55 | 1012.2 |
| 20260505013339 | 63 | 188 | 2.0 | 4.0 | 0.00 | 0.00 | 0.00 | 54 | 1012.2 |
| 20260505012039 | 63 | 213 | 2.0 | 4.0 | 0.00 | 0.00 | 0.00 | 53 | 1012.0 |
| 20260505010740 | 63 | 243 | 1.0 | 3.0 | 0.00 | 0.00 | 0.00 | 53 | 1011.8 |
| 20260505005439 | 63 | 239 | 2.0 | 3.0 | 0.00 | 0.00 | 0.00 | 53 | 1011.8 |
| 20260505004140 | 63 | 258 | 2.0 | 4.0 | 0.00 | 0.00 | 0.00 | 54 | 1011.8 |
| 20260505002840 | 63 | 214 | 1.0 | 3.0 | 0.00 | 0.00 | 0.00 | 53 | 1011.6 |
| 20260505001540 | 64 | 263 | 1.0 | 2.0 | 0.00 | 0.00 | 0.00 | 53 | 1011.5 |
| 20260505000240 | 65 | 264 | 1.0 | 3.0 | 0.00 | 0.00 | 0.00 | 52 | 1011.5 |
| 20260504234940 | 65 | 197 | 2.0 | 4.0 | 0.00 | 0.00 | 0.00 | 50 | 1011.4 |
| 20260504233640 | 66 | 196 | 2.0 | 4.0 | 0.00 | 0.00 | 0.00 | 50 | 1011.3 |
| 20260504232340 | 67 | 248 | 2.0 | 6.0 | 0.00 | 0.00 | 0.00 | 50 | 1011.3 |
| 20260504231040 | 67 | 196 | 2.0 | 4.0 | 0.00 | 0.00 | 0.00 | 48 | 1011.4 |
| 20260504225740 | 68 | 244 | 2.0 | 3.0 | 0.00 | 0.00 | 0.00 | 47 | 1011.4 |
| 20260504224440 | 68 | 236 | 2.0 | 4.0 | 0.00 | 0.00 | 0.00 | 47 | 1011.3 |
| 20260504223140 | 69 | 200 | 2.0 | 4.0 | 0.00 | 0.00 | 0.00 | 45 | 1011.4 |
| 20260504221840 | 69 | 213 | 4.0 | 9.0 | 0.00 | 0.00 | 0.00 | 46 | 1011.4 |
| 20260504220540 | 69 | 163 | 3.0 | 7.0 | 0.00 | 0.00 | 0.00 | 45 | 1011.5 |
| 20260504215240 | 69 | 190 | 3.0 | 7.0 | 0.00 | 0.00 | 0.00 | 44 | 1011.5 |
| 20260504213940 | 69 | 180 | 3.0 | 6.0 | 0.00 | 0.00 | 0.00 | 45 | 1011.6 |
| 20260504212640 | 70 | 275 | 1.0 | 4.0 | 0.00 | 0.00 | 0.00 | 44 | 1011.5 |
| 20260504211340 | 70 | 197 | 1.0 | 7.0 | 0.00 | 0.00 | 0.00 | 44 | 1011.6 |
| 20260504210040 | 70 | 194 | 3.0 | 6.0 | 0.00 | 0.00 | 0.00 | 44 | 1011.4 |
| 20260504204740 | 70 | 268 | 3.0 | 7.0 | 0.00 | 0.00 | 0.00 | 45 | 1011.5 |
| 20260504203440 | 70 | 264 | 4.0 | 12.0 | 0.00 | 0.00 | 0.00 | 46 | 1011.5 |
| 20260504202140 | 71 | 197 | 4.0 | 8.0 | 0.00 | 0.00 | 0.00 | 43 | 1011.6 |
| 20260504200840 | 71 | 264 | 3.0 | 9.0 | 0.00 | 0.00 | 0.00 | 45 | 1011.9 |
| 20260504195540 | 70 | 267 | 5.0 | 12.0 | 0.00 | 0.00 | 0.00 | 43 | 1012.0 |
| 20260504194240 | 70 | 227 | 5.0 | 11.0 | 0.00 | 0.00 | 0.00 | 43 | 1012.0 |
| 20260504192940 | 70 | 254 | 3.0 | 5.0 | 0.00 | 0.00 | 0.00 | 45 | 1012.3 |
| 20260504191640 | 70 | 196 | 5.0 | 11.0 | 0.00 | 0.00 | 0.00 | 43 | 1012.5 |
| 20260504190340 | 69 | 242 | 5.0 | 11.0 | 0.00 | 0.00 | 0.00 | 44 | 1012.6 |
| 20260504185040 | 69 | 239 | 5.0 | 13.0 | 0.00 | 0.00 | 0.00 | 43 | 1012.7 |
| 20260504183740 | 69 | 208 | 3.0 | 7.0 | 0.00 | 0.00 | 0.00 | 47 | 1012.9 |
| 20260504182440 | 69 | 265 | 3.0 | 7.0 | 0.00 | 0.00 | 0.00 | 45 | 1013.0 |
| 20260504181140 | 68 | 250 | 3.0 | 7.0 | 0.00 | 0.00 | 0.00 | 45 | 1013.2 |
| 20260504175840 | 67 | 176 | 3.0 | 11.0 | 0.00 | 0.00 | 0.00 | 44 | 1013.4 |
| 20260504174540 | 67 | 206 | 4.0 | 7.0 | 0.00 | 0.00 | 0.00 | 45 | 1013.7 |
| 20260504173240 | 67 | 198 | 3.0 | 9.0 | 0.00 | 0.00 | 0.00 | 46 | 1014.0 |
| 20260504171940 | 66 | 281 | 4.0 | 8.0 | 0.00 | 0.00 | 0.00 | 47 | 1014.2 |
| 20260504170640 | 65 | 228 | 5.0 | 9.0 | 0.00 | 0.00 | 0.00 | 48 | 1014.2 |
| 20260504160140 | 63 | 245 | 2.0 | 8.0 | 0.00 | 0.00 | 0.00 | 49 | 1015.3 |
| 20260504150940 | 61 | 248 | 5.0 | 12.0 | 0.00 | 0.00 | 0.00 | 47 | 1015.9 |
| 20260504140440 | 58 | 186 | 3.0 | 4.0 | 0.00 | 0.00 | 0.00 | 56 | 1015.9 |
| 20260504110241 | 48 | 196 | 4.0 | 6.0 | 0.00 | 0.00 | 0.00 | 59 | 1016.5 |